Location: Home
(42.5358°N, 72.7383°W)
Time: 15:38:52
(UTC-05:00)

Vanguard 3 - Pass Details

Date: 05 December 2021
Orbit: 508 x 3260 km, 33.3° (Epoch: 20 January)

Event Time Altitude Azimuth Distance (km) Brightness Sun altitude
Rises 06:31:03 0° 268° (W) 7,229 11.4 -6.4°
Reaches altitude 10° 06:36:10 10° 265° (W) 6,149 11.1 -5.6°
Maximum altitude 06:54:19 57° 195° (SSW) 2,904 10.1 -2.6°
Drops below altitude 10° 07:06:05 10° 121° (ESE) 4,147 13.1 -0.7°
Sets 07:08:49 0° 116° (ESE) 4,827 14.4 -0.3°
